Terminal Aerodrome Forecast
Issued by NWS

Home | Current Version | Previous Version | Text Only | Print | Product List | Glossary On
Versions: 1 2 3 4 5 6 7 8 9 10 11 12 13 14 15 16 17 18
000
FTUS43 KAPX 181500 AAB
TAFMBL
TAF AMD
KMBL 181544Z 1816/1912 33011KT P6SM OVC035
     FM182100 33011KT P6SM SCT150
     FM190000 06003KT P6SM SKC
     FM190900 08003KT P6SM BKN120
      AMD LTD TO CLD VIS AND WIND=

USA.gov is the U.S. government's official web portal to all federal, state and local government web resources and services.